Regional Weather Roundup
Issued by NWS Charleston, SC

Current Version | Previous Version | Text Only | Print | Product List | Glossary Off
Versions: 1 2 3 4 5 6 7 8 9 10 11 12 13 14 15 16 17 18 19 20 21 22 23 24 25 26 27 28 29 30 31 32 33 34 35 36 37 38 39 40 41 42 43 44 45 46 47 48 49 50

000
ASUS42 KCHS 271612
RWRCHS

REGIONAL WEATHER ROUNDUP
NATIONAL WEATHER SERVICE CHARLESTON SC
1200 PM EDT FRI MAR 27 2015

NOTE: "FAIR" INDICATES FEW OR NO CLOUDS BELOW 12,000 FEET WITH NO
SIGNIFICANT WEATHER AND/OR OBSTRUCTIONS TO VISIBILITY.

NOT ALL STATIONS ARE QUALITY CONTROLLED BY THE NATIONAL
WEATHER SERVICE. USE DATA WITH CAUTION...ESPECIALLY
DEWPOINT OBSERVATIONS.

SCZ027-030-031-034>040-042>050-271700-
...SOUTHEAST SOUTH CAROLINA...

CITY           SKY/WX    TMP DP  RH WIND       PRES   REMARKS
N CHARLESTON   CLOUDY    69  60  73 SW13G20   29.73R
WATERFRONT PRK   N/A     66 N/A N/A SW10        N/A
MOUNT PLEASANT PTSUNNY   70  63  78 SW8G16    29.72S
PINOPOLIS        N/A     70  63  78 SW10      29.61F
MONCKS CORNER  CLOUDY    72  63  73 SW9       29.71S
SUMMERVILLE    CLOUDY    70  63  78 SW9       29.73R
BEAUFORT MCAS  CLOUDY    70  61  73 SW12G23   29.72F
BEAUFORT ARPT  CLOUDY    70  63  78 SW12G17   29.73S HAZE
HILTON HEAD IS PTSUNNY   70  63  78 SW10G18   29.76R
WALTERBORO     CLOUDY    68  61  77 SW12      29.73S
ALLENDALE      CLOUDY    70  61  73 VRB7G14   29.70S

...SOUTHERN MIDLANDS AND PEE DEE...

CITY           SKY/WX    TMP DP  RH WIND       PRES   REMARKS
GEORGETOWN     NOT AVBL
KINGSTREE      NOT AVBL
ORANGEBURG     CLOUDY    69  59  70 SW16G22   29.69S
BARNWELL       PTSUNNY   72  63  73 SW10      29.70S
AIKEN          CLOUDY    66  54  63 W9        29.73R
MANNING        CLOUDY    68  59  73 SW12G17   29.68F
COLUMBIA       CLOUDY    58  55  90 N10       29.71R
SUMTER         CLOUDY    57  54  92 N15       29.68R
FLORENCE       LGT RAIN  56  52  86 N18       29.67S
MYRTLE BEACH   PTSUNNY   72  63  73 SW14      29.68F
N MYRTLE BEACH PTSUNNY   65  60  84 SW15      29.66F

$$

GAZ063-065-086>088-099>101-113>116-118-119-134>141-150-271700-
...SOUTHEAST GEORGIA...

CITY           SKY/WX    TMP DP  RH WIND       PRES   REMARKS
SAVANNAH ARPT  CLOUDY    71  60  68 SW13G18   29.73F
HUNTER AAF     CLOUDY    72  64  78 SW9       29.71F
FORT STEWART   CLOUDY    70  61  73 SW13      29.73F
STATESBORO     CLOUDY    69  66  92 SW12G17   29.72F
SYLVANIA       CLOUDY    69  63  82 W7        29.72F
CLAXTON        CLOUDY    68  63  83 SW7G16    29.74F

...CSRA...CENTRAL AND FAR SOUTHEAST GEORGIA...

CITY           SKY/WX    TMP DP  RH WIND       PRES   REMARKS
THOMSON        PTSUNNY   60  54  79 NW15      29.79S
AUGUSTA-BUSH   CLOUDY    68  57  68 W13       29.71R
AUGUSTA-DANIEL CLOUDY    65  56  72 W8G17     29.73R
SWAINSBORO     CLOUDY    68  50  52 W9G18     29.74F
VIDALIA        HVY RAIN  66  63  88 SW6       29.74F
EASTMAN        CLOUDY    60  55  82 NW13G21   29.82S
HAZLEHURST     LGT RAIN  70  63  78 W7        29.74F
ALMA           CLOUDY    68  61  78 W10       29.76F
WAYCROSS       CLOUDY    72  68  87 W9        29.78S
JESUP          CLOUDY    70  64  83 W9        29.78S
BAXLEY         CLOUDY    70  63  78 W7        29.75F
BRUNSWICK      CLOUDY    72  63  73 SW12      29.79S
SAINT SIMONS   CLOUDY    70  62  76 SW10G20   29.78S

$$

SCZ027-028-034-036>038-045-046-048>050-GAZ119-141-271700-
...LAKE AND SUPPLEMENTAL COASTAL OBSERVATIONS...

STATION/POSITION TIME  TEMP    WIND        PRES    WAVE   SWELL
                       AIR SEA DIR/SP/G            HT/PER HT/PER/DIR
                 (UTC) (F)     (DEG/KT/KT) (MB)    (FT/S) (FT/S/D)
UPR LAKE MARION  NOT AVBL
WINYAH BAY       NOT AVBL
LAKE MURRAY      1500   57      20/  4/ 11 1005.4S
ACE BASIN NERRS  NOT AVBL
FORT PULASKI     1506   69 62  230/  8/ 12 1007.8F
SAPELO ISLAND    1500   69     230/ 14     1008.0S

$$

ANZ835-935-AMZ111-154-330-350-352-354-370-450-454-472-271700-
...C-MAN AND BUOY OBSERVATIONS...

STATION/POSITION TIME  TEMP    WIND        PRES    WAVE   SWELL
                       AIR SEA DIR/SP/G            HT/PER HT/PER/DIR
                 (UTC) (F)     (DEG/KT/KT) (MB)    (FT/S) (FT/S/D)
BUOY 41004       1550   66 70  230/ 19/ 23 1006.3F   6/ 6   3/ 8
BUOY 41008       1550   63 60  200/ 12/ 14 1008.2F   2/ 8   2/ 90/ 8
FOLLY BEACH CMAN 1600   63     220/ 12/ 15 1006.9F
CAPERS NEARSHORE 1500   62     230/ 17/ 21   N/A
FRIPP NEARSHORE  1500   63     220/ 14/ 17 1007.2F


STATION/POSITION TIME  TEMP    WIND        PRES    WAVE   SWELL
                       AIR SEA DIR/SP/G            HT/PER HT/PER/DIR
                 (UTC) (F)     (DEG/KT/KT) (MB)    (FT/S) (FT/S/D)
5E ST. MARYS GA  1521      63                N/A     2/ 8
FRYING PAN BUOY  1550   66 65  230/ 19/ 23 1005.4F   6/ 8   3/110/ 8
BUOY 41025       NOT AVBL
CAPE LOOKOUT NC  1600   62     250/  8/ 11 1004.3F
BUOY 41002       1550   71 69  210/ 23/ 29 1008.3R  10/ 8   2/ 60/13
BUOY 41010       1520   78 76  210/ 19/ 23 1011.4F
ST AUGUSTINE FL  1600   72 62  260/ 12/ 15 1010.6F


$$


USA.gov is the U.S. government's official web portal to all federal, state and local government web resources and services.